Hourly Data Report for July 11, 2012

HALIFAX STANFIELD INT'L A
NOVA SCOTIA

44°52'48.060" N
63°30'00.050" W
145.40 m
8202250
71395
YHZ

Download Data

Hourly Data (July 2012)
Hourly Data Report for July 11, 2012
TIME
LST
Temp Definition
°C
Dew Point Definition
°C
Rel Hum Definition
%
Precip. Amount Definition
mm

Wind Dir Definition
10's deg

Wind Spd Definition
km/h
Visibility Definition
km
Stn Press Definition
kPa
Hmdx Definition


Wind Chill Definition


Weather Definition


00:00 17.9 8.3 53   24 20 24.1 99.93     Mainly Clear
01:00 17.1 8.6 57   24 19 24.1 99.94     Mainly Clear
02:00 16.4 8.5 60   25 15 24.1 99.96     Mainly Clear
03:00 15.7 8.6 63   27 11 24.1 100.01     Mainly Clear
04:00 15.4 8.8 65   27 11 24.1 100.03     Mainly Clear
05:00 15.4 9.1 66   28 15 24.1 100.08     Mainly Clear
06:00 16.9 9.8 63   30 9 24.1 100.14     Clear
07:00 18.2 10.2 60   29 11 24.1 100.20     Mainly Clear
08:00 21.8 9.9 47   28 15 24.1 100.24     Mainly Clear
09:00 24.0 7.1 34   30 24 24.1 100.28     Mainly Clear
10:00 24.4 7.5 34   30 24 24.1 100.30 25   Mainly Clear
11:00 25.1 7.7 33   30 26 24.1 100.30 25   Mostly Cloudy
12:00 25.1 6.2 30   29 26 24.1 100.30 25   Mostly Cloudy
13:00 25.3 6.7 30   31 20 24.1 100.30 25   Mostly Cloudy
14:00 26.4 7.7 31   31 26 24.1 100.28 27   Mostly Cloudy
15:00 26.5 5.7 26   31 24 24.1 100.28 26   Mainly Clear
16:00 26.4 6.1 27   30 19 24.1 100.30 26   Mainly Clear
17:00 26.4 6.3 28   31 26 24.1 100.30 26   Mainly Clear
18:00 24.4 13.8 52   22 17 24.1 100.36 28   Mostly Cloudy
19:00 23.4 13.9 55   21 11 24.1 100.40 27   Mostly Cloudy
20:00 21.5 13.7 61   23 9 24.1 100.45 25   Mostly Cloudy
21:00 20.6 13.5 64   23 6 24.1 100.50     Mostly Cloudy
22:00 19.1 12.1 64   26 2 24.1 100.51     Mainly Clear
23:00 17.9 11.7 67   23 9 24.1 100.53     Mainly Clear

Notes on Data Quality.

Legend

  • E = Estimated
  • M = Missing
  • NA = Not Available*
  • [empty] = Indicates an unobserved value
Date modified: